BIROS

Last updated on Thu Oct 30 2025 00:02:31 GMT+0000 (Coordinated Universal Time)

1 41604U 16040F 25302.52292647 .00096293 00000+0 60304-3 0 9999 2 41604 97.0761 332.6551 0003267 35.4954 324.6530 15.76524515521732
UTC large
Height (km)
Speed (km/s)
/
Latitude / Longitude
Inclination (degrees)
Orbital Period (minutes)
Azimuth
Elevation
Range (km)
Doppler Factor

Next 0 passes for location: London (51.5072 / 0.1276)

Sorry there are no passes over London.